AFR2150 SOCA-SBGL

Flight info

Callsign AFR2150
Flight time N/A
Altitude 41000
Route EPKIP1A EPKIP DCT OIA UA555 BEL/N0476F400 UZ3 MAVGU
Aircraft B772/H-SDE2E3FGHIJ5LORVWXY/LB1D1

Departure

Time 2026-04-24 19:50
Airport Cayenne – Félix Eboué Airport (SOCA)

Arrival

Time N/A
Airport Rio Galeão – Tom Jobim International Airport (SBGL)
Time Latitude Longitude Altitude Speed Heading
2026-04-24 19:07 4.82201 -52.36255 40 ft 0 kts 305°
2026-04-24 19:41 4.82200 -52.36254 40 ft 1 kts 305°
2026-04-24 19:41 4.82192 -52.36242 40 ft 2 kts 305°
2026-04-24 19:41 4.82185 -52.36232 40 ft 0 kts 305°
2026-04-24 19:42 4.82178 -52.36222 40 ft 2 kts 299°
2026-04-24 19:42 4.82172 -52.36208 40 ft 2 kts 289°
2026-04-24 19:42 4.82168 -52.36194 40 ft 2 kts 281°
2026-04-24 19:42 4.82166 -52.36179 40 ft 2 kts 272°
2026-04-24 19:43 4.82166 -52.36164 40 ft 2 kts 263°
2026-04-24 19:43 4.82169 -52.36149 41 ft 2 kts 255°
2026-04-24 19:43 4.82173 -52.36136 41 ft 0 kts 247°
2026-04-24 19:43 4.82174 -52.36134 41 ft 0 kts 246°
2026-04-24 19:45 4.82171 -52.36140 41 ft 4 kts 246°
2026-04-24 19:45 4.82148 -52.36189 40 ft 8 kts 244°
2026-04-24 19:45 4.82120 -52.36237 40 ft 7 kts 237°
2026-04-24 19:46 4.82075 -52.36255 40 ft 7 kts 167°
2026-04-24 19:46 4.82059 -52.36250 40 ft 3 kts 159°
2026-04-24 19:46 4.82019 -52.36233 40 ft 9 kts 158°
2026-04-24 19:46 4.81948 -52.36247 40 ft 13 kts 224°
2026-04-24 19:47 4.81896 -52.36348 39 ft 18 kts 245°
2026-04-24 19:47 4.81834 -52.36483 38 ft 23 kts 245°
2026-04-24 19:47 4.81760 -52.36643 38 ft 27 kts 245°
2026-04-24 19:47 4.81675 -52.36830 37 ft 30 kts 245°
2026-04-24 19:48 4.81594 -52.37005 38 ft 25 kts 245°
2026-04-24 19:48 4.81520 -52.37165 39 ft 25 kts 246°
2026-04-24 19:48 4.81446 -52.37368 42 ft 9 kts 277°
2026-04-24 19:49 4.81437 -52.37347 41 ft 7 kts 67°
2026-04-24 19:49 4.81733 -52.36704 38 ft 124 kts 66°
2026-04-24 19:50 4.83265 -52.33239 1738 ft 202 kts 74°
2026-04-24 19:50 4.83594 -52.31846 2674 ft 216 kts 77°
2026-04-24 19:51 4.84326 -52.28770 4521 ft 244 kts 75°
2026-04-24 19:51 4.84743 -52.27092 5456 ft 257 kts 76°
2026-04-24 19:52 4.85615 -52.23585 7630 ft 267 kts 76°
2026-04-24 19:52 4.86065 -52.21773 8655 ft 273 kts 76°
2026-04-24 19:52 4.86334 -52.19894 9661 ft 276 kts 94°
2026-04-24 19:52 4.85816 -52.18045 10527 ft 286 kts 117°
2026-04-24 19:53 4.84460 -52.16508 11163 ft 307 kts 143°
2026-04-24 19:53 4.82498 -52.15557 11788 ft 327 kts 155°
2026-04-24 19:53 4.78029 -52.13882 13130 ft 356 kts 156°
2026-04-24 19:54 4.75628 -52.12995 13763 ft 371 kts 156°
2026-04-24 19:54 4.73185 -52.12092 14274 ft 383 kts 156°
2026-04-24 19:54 4.70646 -52.11155 14827 ft 393 kts 156°
2026-04-24 19:54 4.68050 -52.10197 15479 ft 399 kts 156°
2026-04-24 19:55 4.66299 -52.09552 15985 ft 400 kts 156°
2026-04-24 19:55 4.62798 -52.08262 16953 ft 404 kts 156°
2026-04-24 19:55 4.60149 -52.07286 17568 ft 410 kts 157°
2026-04-24 19:55 4.57460 -52.06295 18170 ft 415 kts 156°
2026-04-24 19:56 4.54744 -52.05294 18856 ft 417 kts 157°
2026-04-24 19:56 4.52002 -52.04284 19556 ft 419 kts 158°
2026-04-24 19:56 4.49247 -52.03270 20189 ft 423 kts 158°
2026-04-24 19:56 4.46462 -52.02243 20731 ft 429 kts 158°
2026-04-24 19:57 4.43642 -52.01205 21253 ft 434 kts 158°
2026-04-24 19:57 4.40784 -52.00153 21890 ft 437 kts 158°
2026-04-24 19:57 4.37896 -51.99090 22490 ft 440 kts 158°
2026-04-24 19:57 4.35017 -51.98031 23042 ft 444 kts 158°
2026-04-24 19:58 4.32083 -51.96950 23527 ft 450 kts 158°
2026-04-24 19:58 4.29115 -51.95859 24086 ft 454 kts 158°
2026-04-24 19:58 4.26140 -51.94764 24671 ft 457 kts 158°
2026-04-24 19:58 4.23151 -51.93665 25208 ft 461 kts 158°
2026-04-24 19:59 4.20133 -51.92554 25720 ft 465 kts 158°
2026-04-24 19:59 4.17061 -51.91425 26255 ft 468 kts 158°
2026-04-24 19:59 4.13977 -51.90290 26768 ft 472 kts 159°
2026-04-24 19:59 4.10869 -51.89148 27293 ft 475 kts 159°
2026-04-24 20:00 4.07748 -51.88001 27765 ft 479 kts 159°
2026-04-24 20:00 4.04605 -51.86845 28163 ft 484 kts 158°
2026-04-24 20:00 4.01530 -51.85450 28577 ft 487 kts 150°
2026-04-24 20:00 3.98693 -51.83596 29003 ft 490 kts 141°
2026-04-24 20:01 3.96146 -51.81304 29453 ft 492 kts 134°
2026-04-24 20:01 3.93713 -51.79046 29987 ft 493 kts 141°
2026-04-24 20:01 3.90918 -51.77140 30632 ft 492 kts 149°
2026-04-24 20:01 3.87823 -51.75666 31339 ft 489 kts 157°
2026-04-24 20:02 3.86006 -51.74907 31738 ft 487 kts 154°
2026-04-24 20:02 3.82077 -51.72708 32611 ft 482 kts 147°
2026-04-24 20:02 3.79192 -51.70928 33204 ft 482 kts 147°
2026-04-24 20:02 3.76362 -51.69177 33844 ft 481 kts 147°
2026-04-24 20:03 3.73513 -51.67415 34675 ft 477 kts 147°
2026-04-24 20:03 3.70711 -51.65682 35552 ft 471 kts 147°
2026-04-24 20:03 3.67929 -51.63960 36286 ft 467 kts 147°
2026-04-24 20:03 3.65153 -51.62244 36831 ft 465 kts 147°
2026-04-24 20:04 3.62409 -51.60546 37291 ft 465 kts 147°
2026-04-24 20:04 3.59672 -51.58853 37741 ft 463 kts 147°
2026-04-24 20:04 3.56906 -51.57143 38202 ft 462 kts 147°
2026-04-24 20:04 3.54185 -51.55460 38646 ft 459 kts 147°
2026-04-24 20:05 3.51492 -51.53795 39084 ft 457 kts 147°
2026-04-24 20:05 3.48791 -51.52124 39402 ft 457 kts 147°
2026-04-24 20:05 3.46070 -51.50442 39613 ft 458 kts 147°
2026-04-24 20:05 3.43360 -51.48766 39826 ft 458 kts 147°
2026-04-24 20:06 3.40639 -51.47084 40132 ft 457 kts 147°
2026-04-24 20:06 3.37941 -51.45416 40443 ft 455 kts 147°
2026-04-24 20:06 3.35259 -51.43758 40733 ft 454 kts 147°
2026-04-24 20:06 3.32572 -51.42098 40904 ft 454 kts 147°
2026-04-24 20:07 3.30772 -51.40985 40948 ft 455 kts 147°
2026-04-24 20:07 3.24455 -51.37081 40946 ft 454 kts 147°
2026-04-24 20:08 3.19088 -51.33765 40947 ft 453 kts 147°
2026-04-24 20:08 3.13739 -51.30460 40946 ft 453 kts 147°
2026-04-24 20:09 3.08347 -51.27129 40941 ft 453 kts 147°
2026-04-24 20:09 3.02987 -51.23817 40938 ft 453 kts 147°
2026-04-24 20:10 2.97602 -51.20492 40935 ft 452 kts 147°
2026-04-24 20:10 2.92241 -51.17181 40935 ft 452 kts 147°
2026-04-24 20:11 2.86868 -51.13863 40935 ft 453 kts 147°
2026-04-24 20:11 2.81493 -51.10544 40934 ft 453 kts 147°
2026-04-24 20:12 2.76117 -51.07225 40936 ft 454 kts 147°
2026-04-24 20:12 2.70753 -51.03914 40934 ft 453 kts 146°
2026-04-24 20:13 2.65393 -51.00605 40929 ft 453 kts 146°
2026-04-24 20:13 2.59983 -50.97266 40929 ft 454 kts 146°
2026-04-24 20:14 2.54621 -50.93957 40927 ft 455 kts 146°
2026-04-24 20:14 2.49202 -50.90614 40927 ft 455 kts 146°
2026-04-24 20:15 2.43789 -50.87274 40928 ft 455 kts 146°
2026-04-24 20:15 2.38403 -50.83951 40930 ft 455 kts 146°
2026-04-24 20:16 2.33009 -50.80624 40930 ft 456 kts 146°
2026-04-24 20:16 2.27587 -50.77279 40931 ft 456 kts 146°
2026-04-24 20:17 2.22166 -50.73936 40926 ft 457 kts 146°
2026-04-24 20:17 2.14029 -50.68896 40926 ft 456 kts 145°
2026-04-24 20:18 2.08663 -50.65522 40927 ft 456 kts 146°
2026-04-24 20:18 2.03238 -50.62113 40927 ft 459 kts 145°
2026-04-24 20:19 1.97863 -50.58738 40922 ft 456 kts 145°
2026-04-24 20:19 1.92445 -50.55336 40927 ft 458 kts 145°
2026-04-24 20:20 1.87300 -50.52102 40908 ft 458 kts 145°
2026-04-24 20:20 1.81877 -50.48698 40929 ft 458 kts 145°
2026-04-24 20:21 1.76449 -50.45294 40926 ft 460 kts 145°
2026-04-24 20:21 1.71036 -50.41898 40926 ft 459 kts 145°
2026-04-24 20:22 1.65617 -50.38498 40927 ft 460 kts 145°
2026-04-24 20:22 1.60185 -50.35090 40924 ft 461 kts 145°
2026-04-24 20:23 1.54753 -50.31682 40927 ft 461 kts 146°
2026-04-24 20:23 1.49297 -50.28260 40925 ft 460 kts 145°
2026-04-24 20:24 1.43845 -50.24839 40924 ft 463 kts 145°
2026-04-24 20:24 1.38404 -50.21426 40927 ft 464 kts 146°
2026-04-24 20:25 1.32935 -50.17996 40926 ft 464 kts 145°
2026-04-24 20:25 1.27461 -50.14562 40924 ft 465 kts 145°
2026-04-24 20:26 1.21942 -50.11101 40922 ft 465 kts 145°
2026-04-24 20:26 1.16480 -50.07676 40913 ft 465 kts 146°
2026-04-24 20:27 1.10967 -50.04218 40912 ft 467 kts 146°
2026-04-24 20:27 1.05461 -50.00766 40912 ft 466 kts 146°
2026-04-24 20:28 0.99969 -49.97322 40910 ft 467 kts 146°
2026-04-24 20:28 0.94462 -49.93869 40911 ft 467 kts 146°
2026-04-24 20:29 0.88978 -49.90431 40908 ft 466 kts 146°
2026-04-24 20:29 0.83601 -49.87059 40909 ft 464 kts 146°
2026-04-24 20:30 0.78105 -49.83613 40911 ft 465 kts 146°
2026-04-24 20:30 0.72629 -49.80180 40908 ft 463 kts 146°
2026-04-24 20:31 0.67157 -49.76749 40907 ft 465 kts 146°
2026-04-24 20:31 0.61669 -49.73309 40909 ft 463 kts 146°
2026-04-24 20:32 0.56215 -49.69890 40912 ft 462 kts 146°
2026-04-24 20:32 0.50804 -49.66497 40915 ft 461 kts 146°
2026-04-24 20:33 0.45321 -49.63060 40919 ft 463 kts 146°
2026-04-24 20:33 0.39880 -49.59650 40917 ft 460 kts 146°
2026-04-24 20:34 0.34461 -49.56253 40919 ft 460 kts 146°
2026-04-24 20:34 0.29014 -49.52839 40920 ft 460 kts 146°
2026-04-24 20:35 0.23605 -49.49448 40923 ft 459 kts 146°
2026-04-24 20:35 0.18192 -49.46055 40926 ft 459 kts 146°
2026-04-24 20:36 0.12775 -49.42659 40926 ft 459 kts 146°
2026-04-24 20:36 0.07382 -49.39279 40925 ft 458 kts 146°
2026-04-24 20:37 0.01979 -49.35892 40926 ft 457 kts 146°
2026-04-24 20:37 -0.03447 -49.32491 40931 ft 457 kts 146°
2026-04-24 20:38 -0.08824 -49.29120 40931 ft 458 kts 146°
2026-04-24 20:38 -0.14136 -49.25791 40932 ft 457 kts 146°
2026-04-24 20:39 -0.19348 -49.22523 40931 ft 458 kts 146°
2026-04-24 20:39 -0.24635 -49.19209 40932 ft 458 kts 146°
2026-04-24 20:40 -0.30067 -49.15804 40931 ft 457 kts 146°
2026-04-24 20:40 -0.35453 -49.12427 40930 ft 459 kts 145°
2026-04-24 20:41 -0.40863 -49.09037 40932 ft 457 kts 146°
2026-04-24 20:41 -0.46252 -49.05658 40930 ft 458 kts 145°
2026-04-24 20:42 -0.51687 -49.02251 40930 ft 457 kts 145°
2026-04-24 20:42 -0.57067 -48.98879 40930 ft 460 kts 145°
2026-04-24 20:43 -0.62521 -48.95460 40928 ft 459 kts 146°
2026-04-24 20:43 -0.67921 -48.92074 40928 ft 460 kts 145°
2026-04-24 20:44 -0.73367 -48.88660 40927 ft 461 kts 146°
2026-04-24 20:44 -0.78827 -48.85237 40925 ft 461 kts 145°
2026-04-24 20:45 -0.84257 -48.81832 40925 ft 460 kts 146°
2026-04-24 20:45 -0.89693 -48.78424 40927 ft 461 kts 146°
2026-04-24 20:46 -0.95129 -48.75016 40924 ft 462 kts 146°
2026-04-24 20:46 -1.00604 -48.71582 40921 ft 464 kts 146°
2026-04-24 20:47 -1.06069 -48.68156 40921 ft 464 kts 146°
2026-04-24 20:47 -1.11565 -48.64710 40921 ft 463 kts 146°
2026-04-24 20:48 -1.17026 -48.61285 40922 ft 463 kts 146°
2026-04-24 20:48 -1.22487 -48.57860 40918 ft 463 kts 146°
2026-04-24 20:49 -1.27951 -48.54433 40916 ft 464 kts 146°
2026-04-24 20:49 -1.33413 -48.51007 40913 ft 464 kts 146°
2026-04-24 20:50 -1.38675 -48.48055 40907 ft 468 kts 156°
2026-04-24 20:50 -1.44975 -48.46226 40822 ft 462 kts 163°
2026-04-24 20:51 -1.48053 -48.45467 39984 ft 458 kts 163°
2026-04-24 20:51 -1.51163 -48.44700 39889 ft 455 kts 163°
2026-04-24 20:51 -1.57372 -48.43165 39912 ft 461 kts 163°
2026-04-24 20:52 -1.63621 -48.41619 39911 ft 467 kts 163°
2026-04-24 20:52 -1.70009 -48.40038 39911 ft 474 kts 164°
2026-04-24 20:53 -1.76426 -48.38450 39911 ft 473 kts 163°
2026-04-24 20:53 -1.82835 -48.36863 39912 ft 474 kts 163°
2026-04-24 20:54 -1.89243 -48.35277 39912 ft 474 kts 163°
2026-04-24 20:54 -1.95660 -48.33688 39918 ft 474 kts 163°
2026-04-24 20:55 -2.02070 -48.32100 39919 ft 473 kts 163°
2026-04-24 20:55 -2.08492 -48.30508 39919 ft 473 kts 163°
2026-04-24 20:56 -2.14694 -48.28970 39919 ft 474 kts 163°
2026-04-24 20:56 -2.21088 -48.27384 39917 ft 474 kts 163°
2026-04-24 20:57 -2.27511 -48.25791 39925 ft 475 kts 163°
2026-04-24 20:57 -2.33953 -48.24193 39931 ft 474 kts 163°
2026-04-24 20:58 -2.40340 -48.22609 39930 ft 473 kts 163°
2026-04-24 20:58 -2.46788 -48.21009 39930 ft 474 kts 163°
2026-04-24 20:59 -2.53175 -48.19424 39928 ft 475 kts 163°
2026-04-24 20:59 -2.59647 -48.17818 39928 ft 476 kts 163°
2026-04-24 21:00 -2.66087 -48.16220 39926 ft 476 kts 163°
2026-04-24 21:00 -2.72532 -48.14630 39924 ft 476 kts 164°
2026-04-24 21:01 -2.78966 -48.13056 39922 ft 477 kts 163°
2026-04-24 21:01 -2.85437 -48.11472 39919 ft 477 kts 163°
2026-04-24 21:02 -2.91868 -48.09897 39920 ft 477 kts 164°
2026-04-24 21:02 -2.98351 -48.08309 39922 ft 478 kts 164°
2026-04-24 21:03 -3.04826 -48.06723 39921 ft 476 kts 164°
2026-04-24 21:03 -3.11304 -48.05136 39916 ft 476 kts 164°
2026-04-24 21:04 -3.17506 -48.03616 39919 ft 476 kts 163°
2026-04-24 21:04 -3.23949 -48.02036 39917 ft 476 kts 164°
2026-04-24 21:05 -3.30402 -48.00454 39919 ft 476 kts 164°
2026-04-24 21:05 -3.36864 -47.98870 39919 ft 476 kts 164°
2026-04-24 21:06 -3.43316 -47.97288 39920 ft 475 kts 163°
2026-04-24 21:06 -3.49759 -47.95708 39926 ft 475 kts 163°
2026-04-24 21:07 -3.56171 -47.94098 39928 ft 476 kts 163°
2026-04-24 21:07 -3.62625 -47.92453 39925 ft 476 kts 163°
2026-04-24 21:08 -3.69040 -47.90820 39929 ft 476 kts 163°
2026-04-24 21:08 -3.75455 -47.89188 39932 ft 475 kts 163°
2026-04-24 21:09 -3.81919 -47.87544 39930 ft 476 kts 163°
2026-04-24 21:09 -3.88345 -47.85909 39933 ft 476 kts 163°
2026-04-24 21:10 -3.94770 -47.84275 39931 ft 476 kts 163°
2026-04-24 21:10 -4.01226 -47.82632 39926 ft 474 kts 163°
2026-04-24 21:11 -4.07632 -47.81002 39932 ft 475 kts 163°
2026-04-24 21:11 -4.14062 -47.79366 39933 ft 475 kts 163°
2026-04-24 21:12 -4.19012 -47.78106 39928 ft 475 kts 163°
2026-04-24 21:12 -4.26553 -47.76186 39929 ft 477 kts 163°
2026-04-24 21:13 -4.33008 -47.74543 39932 ft 477 kts 163°
2026-04-24 21:13 -4.39459 -47.72900 39928 ft 476 kts 163°
2026-04-24 21:14 -4.45929 -47.71269 39928 ft 477 kts 164°
2026-04-24 21:14 -4.52390 -47.69678 39936 ft 476 kts 164°
2026-04-24 21:15 -4.58836 -47.68090 39933 ft 477 kts 164°
2026-04-24 21:15 -4.65326 -47.66490 39939 ft 479 kts 164°
2026-04-24 21:16 -4.71813 -47.64890 39939 ft 478 kts 164°
2026-04-24 21:16 -4.78267 -47.63296 39938 ft 479 kts 164°
2026-04-24 21:17 -4.84763 -47.61692 39944 ft 477 kts 164°
2026-04-24 21:17 -4.90039 -47.60389 39953 ft 478 kts 164°
2026-04-24 21:18 -4.97595 -47.58523 39952 ft 479 kts 164°
2026-04-24 21:18 -5.04126 -47.56909 39949 ft 480 kts 164°
2026-04-24 21:19 -5.10649 -47.55297 39948 ft 479 kts 164°
2026-04-24 21:19 -5.17189 -47.53680 39941 ft 479 kts 164°
2026-04-24 21:20 -5.26899 -47.51279 39936 ft 479 kts 164°
2026-04-24 21:21 -5.33393 -47.49673 39933 ft 479 kts 164°
2026-04-24 21:21 -5.39882 -47.48067 39925 ft 480 kts 164°
2026-04-24 21:22 -5.46241 -47.46494 39921 ft 480 kts 164°
2026-04-24 21:22 -5.52724 -47.44889 39911 ft 479 kts 164°
2026-04-24 21:23 -5.59238 -47.43374 39910 ft 479 kts 165°
2026-04-24 21:23 -5.65787 -47.41870 39906 ft 479 kts 165°
2026-04-24 21:24 -5.72300 -47.40370 39908 ft 479 kts 165°
2026-04-24 21:24 -5.78798 -47.38870 39913 ft 480 kts 165°
2026-04-24 21:25 -5.85317 -47.37360 39917 ft 479 kts 165°
2026-04-24 21:25 -5.91844 -47.35847 39917 ft 479 kts 165°
2026-04-24 21:26 -5.98404 -47.34327 39924 ft 478 kts 165°
2026-04-24 21:26 -6.04930 -47.32814 39923 ft 478 kts 165°
2026-04-24 21:27 -6.11449 -47.31302 39923 ft 478 kts 165°
2026-04-24 21:27 -6.17772 -47.29834 39917 ft 479 kts 165°
2026-04-24 21:28 -6.24280 -47.28324 39920 ft 478 kts 165°
2026-04-24 21:28 -6.30788 -47.26814 39928 ft 479 kts 165°
2026-04-24 21:29 -6.37327 -47.25295 39927 ft 478 kts 165°
2026-04-24 21:29 -6.43819 -47.23787 39931 ft 478 kts 165°
2026-04-24 21:30 -6.50327 -47.22275 39935 ft 478 kts 165°
2026-04-24 21:30 -6.56856 -47.20758 39941 ft 478 kts 165°
2026-04-24 21:31 -6.63359 -47.19247 39944 ft 479 kts 165°
2026-04-24 21:31 -6.69848 -47.17738 39946 ft 478 kts 165°
2026-04-24 21:32 -6.76354 -47.16225 39947 ft 478 kts 166°
2026-04-24 21:32 -6.82866 -47.14710 39949 ft 478 kts 166°
2026-04-24 21:33 -6.89374 -47.13195 39948 ft 477 kts 165°
2026-04-24 21:33 -6.95848 -47.11688 39948 ft 477 kts 165°
2026-04-24 21:34 -7.02330 -47.10179 39948 ft 478 kts 165°
2026-04-24 21:34 -7.08829 -47.08665 39953 ft 479 kts 166°
2026-04-24 21:35 -7.15400 -47.07134 39952 ft 479 kts 166°
2026-04-24 21:35 -7.21897 -47.05620 39959 ft 479 kts 166°
2026-04-24 21:36 -7.28395 -47.04105 39959 ft 479 kts 166°
2026-04-24 21:36 -7.34915 -47.02585 39956 ft 479 kts 166°
2026-04-24 21:37 -7.41479 -47.01054 39955 ft 480 kts 166°
2026-04-24 21:37 -7.48017 -46.99528 39953 ft 481 kts 166°
2026-04-24 21:38 -7.54548 -46.98004 39955 ft 481 kts 166°
2026-04-24 21:38 -7.61083 -46.96478 39956 ft 481 kts 166°
2026-04-24 21:39 -7.67616 -46.94952 39959 ft 481 kts 166°
2026-04-24 21:39 -7.74154 -46.93425 39958 ft 480 kts 166°
2026-04-24 21:40 -7.80701 -46.91895 39963 ft 480 kts 166°
2026-04-24 21:40 -7.87212 -46.90373 39959 ft 481 kts 166°
2026-04-24 21:41 -7.93732 -46.88849 39962 ft 481 kts 166°
2026-04-24 21:41 -8.00252 -46.87323 39962 ft 481 kts 166°
2026-04-24 21:42 -8.06794 -46.85792 39970 ft 482 kts 166°
2026-04-24 21:42 -8.13359 -46.84256 39974 ft 481 kts 166°
2026-04-24 21:43 -8.19917 -46.82720 39979 ft 481 kts 166°
2026-04-24 21:43 -8.26484 -46.81182 39986 ft 481 kts 166°
2026-04-24 21:44 -8.33001 -46.79655 39985 ft 482 kts 166°
2026-04-24 21:44 -8.39572 -46.78115 39983 ft 483 kts 166°
2026-04-24 21:45 -8.46129 -46.76577 39987 ft 484 kts 166°
2026-04-24 21:45 -8.52695 -46.75037 39987 ft 483 kts 166°
2026-04-24 21:46 -8.59278 -46.73492 39988 ft 482 kts 166°
2026-04-24 21:46 -8.65840 -46.71952 39990 ft 483 kts 166°
2026-04-24 21:47 -8.72386 -46.70415 39990 ft 484 kts 166°
2026-04-24 21:47 -8.78976 -46.68867 39989 ft 483 kts 166°
2026-04-24 21:48 -8.85535 -46.67326 39992 ft 484 kts 166°
2026-04-24 21:48 -8.92142 -46.65771 39989 ft 484 kts 166°
2026-04-24 21:49 -8.98692 -46.64229 39992 ft 485 kts 166°
2026-04-24 21:49 -9.05307 -46.62671 39992 ft 483 kts 166°
2026-04-24 21:50 -9.11765 -46.61149 39990 ft 485 kts 166°
2026-04-24 21:50 -9.18196 -46.59633 39990 ft 484 kts 166°
2026-04-24 21:51 -9.24834 -46.58067 39987 ft 484 kts 166°
2026-04-24 21:51 -9.31424 -46.56513 39988 ft 484 kts 166°
2026-04-24 21:52 -9.38017 -46.54957 39990 ft 484 kts 166°
2026-04-24 21:52 -9.44567 -46.53410 39992 ft 484 kts 166°
2026-04-24 21:53 -9.51149 -46.51855 39999 ft 484 kts 166°
2026-04-24 21:53 -9.57707 -46.50306 40001 ft 484 kts 166°
2026-04-24 21:54 -9.64293 -46.48749 40001 ft 483 kts 166°
2026-04-24 21:54 -9.70841 -46.47201 39994 ft 484 kts 166°
2026-04-24 21:55 -9.77404 -46.45648 39995 ft 483 kts 166°
2026-04-24 21:55 -9.83961 -46.44097 40003 ft 482 kts 166°
2026-04-24 21:56 -9.90515 -46.42545 40010 ft 483 kts 166°
2026-04-24 21:56 -9.97080 -46.40990 40021 ft 482 kts 166°
2026-04-24 21:57 -10.03543 -46.39458 40019 ft 482 kts 166°
2026-04-24 21:57 -10.10069 -46.37912 40020 ft 482 kts 166°
2026-04-24 21:58 -10.16522 -46.36381 40021 ft 481 kts 166°
2026-04-24 21:58 -10.23107 -46.34821 40017 ft 482 kts 166°
2026-04-24 21:59 -10.29682 -46.33263 40022 ft 481 kts 166°
2026-04-24 21:59 -10.36217 -46.31715 40024 ft 480 kts 166°
2026-04-24 22:00 -10.42720 -46.30173 40028 ft 479 kts 166°
2026-04-24 22:00 -10.49245 -46.28625 40033 ft 479 kts 166°
2026-04-24 22:01 -10.55719 -46.27088 40037 ft 478 kts 166°
2026-04-24 22:01 -10.62253 -46.25537 40032 ft 478 kts 166°
2026-04-24 22:02 -10.68738 -46.23997 40041 ft 477 kts 166°
2026-04-24 22:02 -10.75202 -46.22461 40054 ft 476 kts 166°
2026-04-24 22:03 -10.81657 -46.20926 40058 ft 476 kts 166°
2026-04-24 22:03 -10.88118 -46.19390 40065 ft 475 kts 166°
2026-04-24 22:04 -10.94605 -46.17846 40070 ft 476 kts 166°
2026-04-24 22:04 -11.01046 -46.16313 40082 ft 474 kts 166°
2026-04-24 22:05 -11.07478 -46.14781 40090 ft 474 kts 166°
2026-04-24 22:05 -11.13983 -46.13231 40085 ft 474 kts 166°
2026-04-24 22:06 -11.20424 -46.11696 40085 ft 475 kts 166°
2026-04-24 22:06 -11.26902 -46.10151 40090 ft 474 kts 166°
2026-04-24 22:07 -11.33317 -46.08620 40094 ft 474 kts 166°
2026-04-24 22:07 -11.39800 -46.07073 40093 ft 474 kts 166°
2026-04-24 22:08 -11.46247 -46.05533 40093 ft 474 kts 166°
2026-04-24 22:08 -11.52675 -46.03997 40089 ft 473 kts 166°
2026-04-24 22:09 -11.58968 -46.02493 40090 ft 473 kts 166°
2026-04-24 22:09 -11.65454 -46.00948 40090 ft 473 kts 166°
2026-04-24 22:10 -11.71907 -45.99411 40097 ft 473 kts 166°
2026-04-24 22:10 -11.78380 -45.97868 40096 ft 473 kts 166°
2026-04-24 22:11 -11.84814 -45.96334 40093 ft 473 kts 166°
2026-04-24 22:11 -11.91256 -45.94797 40094 ft 473 kts 166°
2026-04-24 22:12 -11.97696 -45.93253 40092 ft 473 kts 166°
2026-04-24 22:12 -12.04134 -45.91708 40092 ft 473 kts 166°
2026-04-24 22:13 -12.10579 -45.90161 40092 ft 473 kts 166°
2026-04-24 22:13 -12.17033 -45.88611 40085 ft 473 kts 166°
2026-04-24 22:14 -12.23536 -45.87049 40087 ft 473 kts 165°
2026-04-24 22:14 -12.29859 -45.85529 40090 ft 473 kts 166°
2026-04-24 22:15 -12.36237 -45.83995 40088 ft 472 kts 166°
2026-04-24 22:15 -12.42671 -45.82447 40092 ft 472 kts 165°
2026-04-24 22:16 -12.49113 -45.80897 40094 ft 472 kts 165°
2026-04-24 22:16 -12.55534 -45.79351 40095 ft 472 kts 165°
2026-04-24 22:17 -12.61873 -45.77823 40099 ft 473 kts 165°
2026-04-24 22:17 -12.68302 -45.76273 40099 ft 473 kts 165°
2026-04-24 22:18 -12.74747 -45.74719 40101 ft 472 kts 165°
2026-04-24 22:18 -12.81156 -45.73172 40103 ft 473 kts 165°
2026-04-24 22:19 -12.87588 -45.71619 40095 ft 473 kts 165°
2026-04-24 22:19 -12.94043 -45.70059 40092 ft 474 kts 165°
2026-04-24 22:20 -13.00507 -45.68497 40098 ft 474 kts 165°
2026-04-24 22:20 -13.06965 -45.66935 40101 ft 474 kts 165°
2026-04-24 22:21 -13.13278 -45.65408 40102 ft 474 kts 165°
2026-04-24 22:21 -13.19712 -45.63852 40105 ft 473 kts 165°
2026-04-24 22:22 -13.26027 -45.62324 40105 ft 474 kts 164°
2026-04-24 22:22 -13.32463 -45.60766 40102 ft 475 kts 164°
2026-04-24 22:23 -13.38930 -45.59201 40100 ft 475 kts 164°
2026-04-24 22:23 -13.45401 -45.57634 40097 ft 475 kts 164°
2026-04-24 22:24 -13.51820 -45.56080 40096 ft 475 kts 164°
2026-04-24 22:24 -13.58304 -45.54509 40094 ft 476 kts 164°
2026-04-24 22:25 -13.64778 -45.52939 40092 ft 476 kts 164°
2026-04-24 22:25 -13.71225 -45.51375 40091 ft 476 kts 164°
2026-04-24 22:26 -13.77693 -45.49805 40091 ft 476 kts 164°
2026-04-24 22:26 -13.84184 -45.48220 40094 ft 476 kts 164°
2026-04-24 22:27 -13.90675 -45.46635 40095 ft 476 kts 164°
2026-04-24 22:27 -13.97120 -45.45060 40097 ft 476 kts 164°
2026-04-24 22:28 -14.03607 -45.43473 40103 ft 477 kts 164°
2026-04-24 22:28 -14.10092 -45.41885 40106 ft 477 kts 164°
2026-04-24 22:29 -14.18990 -45.39700 40106 ft 477 kts 163°
2026-04-24 22:29 -14.24921 -45.38243 40105 ft 477 kts 164°
2026-04-24 22:30 -14.31377 -45.36656 40107 ft 476 kts 164°
2026-04-24 22:30 -14.37843 -45.35066 40108 ft 476 kts 164°
2026-04-24 22:31 -14.44192 -45.33513 40112 ft 476 kts 164°
2026-04-24 22:31 -14.50667 -45.31932 40115 ft 476 kts 163°
2026-04-24 22:32 -14.57120 -45.30355 40113 ft 477 kts 163°
2026-04-24 22:32 -14.63571 -45.28776 40109 ft 476 kts 164°
2026-04-24 22:33 -14.70058 -45.27188 40106 ft 476 kts 164°
2026-04-24 22:33 -14.76533 -45.25602 40103 ft 476 kts 164°
2026-04-24 22:34 -14.82997 -45.24018 40110 ft 476 kts 164°
2026-04-24 22:34 -14.89447 -45.22436 40115 ft 475 kts 163°
2026-04-24 22:35 -14.95908 -45.20851 40119 ft 476 kts 163°
2026-04-24 22:35 -15.02356 -45.19265 40127 ft 475 kts 163°
2026-04-24 22:36 -15.08829 -45.17672 40118 ft 476 kts 164°
2026-04-24 22:36 -15.15326 -45.16071 40106 ft 476 kts 164°
2026-04-24 22:37 -15.21784 -45.14479 40098 ft 476 kts 164°
2026-04-24 22:37 -15.28244 -45.12887 40093 ft 476 kts 164°
2026-04-24 22:38 -15.34714 -45.11290 40091 ft 476 kts 164°
2026-04-24 22:38 -15.41112 -45.09710 40090 ft 476 kts 164°
2026-04-24 22:39 -15.47587 -45.08110 40088 ft 476 kts 164°
2026-04-24 22:39 -15.54061 -45.06511 40089 ft 475 kts 164°
2026-04-24 22:40 -15.60525 -45.04919 40083 ft 476 kts 165°
2026-04-24 22:40 -15.67008 -45.03321 40084 ft 477 kts 165°
2026-04-24 22:41 -15.73457 -45.01731 40079 ft 476 kts 165°
2026-04-24 22:41 -15.78388 -45.00515 40079 ft 475 kts 165°
2026-04-24 22:42 -15.85704 -44.98708 40075 ft 476 kts 165°
2026-04-24 22:42 -15.92140 -44.97118 40076 ft 477 kts 165°
2026-04-24 22:43 -15.98623 -44.95515 40072 ft 477 kts 165°
2026-04-24 22:43 -16.05089 -44.93916 40081 ft 477 kts 165°
2026-04-24 22:44 -16.11315 -44.92374 40081 ft 477 kts 165°
2026-04-24 22:44 -16.17805 -44.90766 40084 ft 476 kts 165°
2026-04-24 22:45 -16.24114 -44.89194 40090 ft 476 kts 165°
2026-04-24 22:45 -16.30590 -44.87568 40087 ft 477 kts 165°
2026-04-24 22:46 -16.37058 -44.85944 40089 ft 477 kts 165°
2026-04-24 22:46 -16.43337 -44.84367 40095 ft 477 kts 165°
2026-04-24 22:47 -16.49846 -44.82731 40096 ft 477 kts 165°
2026-04-24 22:47 -16.56307 -44.81105 40100 ft 477 kts 166°
2026-04-24 22:48 -16.62781 -44.79476 40102 ft 477 kts 166°
2026-04-24 22:48 -16.68282 -44.78091 40105 ft 476 kts 166°
2026-04-24 22:49 -16.74740 -44.76464 40107 ft 476 kts 166°
2026-04-24 22:49 -16.81196 -44.74836 40109 ft 476 kts 166°
2026-04-24 22:50 -16.87649 -44.73215 40110 ft 475 kts 166°
2026-04-24 22:50 -16.94102 -44.71632 40111 ft 475 kts 166°
2026-04-24 22:51 -17.00538 -44.70052 40105 ft 474 kts 166°
2026-04-24 22:51 -17.06849 -44.68500 40107 ft 474 kts 166°
2026-04-24 22:52 -17.13071 -44.66969 40104 ft 476 kts 166°
2026-04-24 22:52 -17.19452 -44.65396 40107 ft 476 kts 166°
2026-04-24 22:53 -17.25784 -44.63835 40112 ft 476 kts 166°
2026-04-24 22:53 -17.32278 -44.62233 40117 ft 476 kts 166°
2026-04-24 22:54 -17.38726 -44.60640 40128 ft 475 kts 167°
2026-04-24 22:54 -17.45105 -44.59064 40137 ft 477 kts 167°
2026-04-24 22:55 -17.51586 -44.57462 40151 ft 475 kts 167°
2026-04-24 22:55 -17.58037 -44.55865 40154 ft 477 kts 167°
2026-04-24 22:56 -17.64540 -44.54254 40154 ft 476 kts 167°
2026-04-24 22:56 -17.70962 -44.52587 40152 ft 478 kts 166°
2026-04-24 22:57 -17.77433 -44.50859 40153 ft 476 kts 166°
2026-04-24 22:57 -17.83866 -44.49143 40163 ft 476 kts 166°
2026-04-24 22:58 -17.90346 -44.47416 40164 ft 477 kts 166°
2026-04-24 22:58 -17.96757 -44.45707 40168 ft 476 kts 166°
2026-04-24 22:59 -18.03193 -44.43991 40163 ft 477 kts 166°
2026-04-24 23:00 -18.12869 -44.41494 40147 ft 476 kts 167°
2026-04-24 23:00 -18.19096 -44.39919 40137 ft 475 kts 167°
2026-04-24 23:01 -18.25381 -44.38325 40126 ft 475 kts 167°
2026-04-24 23:01 -18.30047 -44.37140 40128 ft 475 kts 167°
2026-04-24 23:02 -18.35250 -44.35818 40135 ft 474 kts 167°
2026-04-24 23:02 -18.40974 -44.34362 40129 ft 474 kts 167°
2026-04-24 23:03 -18.45252 -44.33272 40135 ft 474 kts 167°